Regional Weather Roundup
Issued by NWS

Home | Current Version | Previous Version | Text Only | Print | Product List | Glossary On
Versions: 1 2 3 4 5 6 7 8 9 10 11 12 13 14 15 16 17 18 19 20 21 22 23 24 25 26 27 28 29 30 31 32 33 34 35 36 37 38 39 40 41 42 43 44 45 46 47 48 49 50
000
ASUS46 KSTO 202015
RWRCA

NORTHERN AND CENTRAL CA REGIONAL WEATHER ROUNDUP
NATIONAL WEATHER SERVICE SACRAMENTO CA
100 PM PDT FRI APR 20 2018

NOTE: FAIR INDICATES FEW OR NO CLOUDS BELOW 12,000 FEET WITH NO
SIGNIFICANT WEATHER AND/OR OBSTRUCTIONS TO VISIBILITY.

CAZ001-003-202100-
NORTHWEST AREA

CITY           SKY/WX    TMP DP  RH WIND       PRES   REMARKS
CRESCENT CITY  MOSUNNY   55  49  80 NW10      30.28R
UKIAH          SUNNY     73  40  30 VRB3      30.15F
$$

CAZ006-505>513-202100-
BAY AREA

CITY           SKY/WX    TMP DP  RH WIND       PRES   REMARKS
SANTA ROSA     SUNNY     74  52  46 S5        30.13F
SAN RAFAEL     N/A       68  MM  MM MISG
NAPA           SUNNY     69  53  56 SW8       30.15F
CONCORD        SUNNY     75  44  33 NW5       30.15F
OAKLAND CITY   N/A      MM  MM  MM MISG
OAKLAND        SUNNY     66  53  63 W9        30.17F
SAN FRAN CITY  N/A       62  MM  60 MISG
SAN FRAN ARPT  MOSUNNY   64  49  57 W18       30.17F
LIVERMORE      SUNNY     72  45  37 VRB5      30.15F
HAYWARD        SUNNY     68  46  45 W10       30.16F
REDWOOD CITY   N/A       71  MM  45 MISG
MOFFETT ARPT   SUNNY     71  47  42 N9        30.17F
SAN JOSE ARPT  SUNNY     74  42  31 W12       30.16F
$$
CAZ034-037-514>518-202100-
CENTRAL COAST

CITY           SKY/WX    TMP DP  RH WIND       PRES   REMARKS
WATSONVILLE    SUNNY     61  53  75 SW9       30.18F
SALINAS        SUNNY     66  50  56 W14       30.16F
MONTEREY       MOSUNNY   55  49  80 NW8       30.20S
SAN LUIS OBISP SUNNY     67  50  54 NW18      30.13F
SANTA MARIA    SUNNY     66  51  58 NW13      30.14F
$$
CAZ015-016-202100-
NORTHERN SACRAMENTO VALLEY

CITY           SKY/WX    TMP DP  RH WIND       PRES   REMARKS
REDDING        SUNNY     77  32  19 N9        30.12F
RED BLUFF      SUNNY     76  41  28 N8        30.13F
OROVILLE       SUNNY     74  46  36 NW5       30.13F
$$
CAZ016>018-202100-
SOUTHERN SACRAMENTO VALLEY

CITY           SKY/WX    TMP DP  RH WIND       PRES   REMARKS
AUBURN         SUNNY     68  46  45 W8        30.15F
BEALE AFB      MOSUNNY   72  49  43 W5        30.11F
LINCOLN        FAIR      70  46  43 CALM      30.12F
MARYSVILLE     SUNNY     75  46  35 CALM      30.12F
SAC INTL ARPT  SUNNY     73  45  36 CALM      30.12F
MATHER AIRPORT SUNNY     70  45  40 CALM      30.12F
DOWNTOWN SAC   N/A       74  MM  MM MISG
SAC EXEC ARPT  SUNNY     74  46  36 VRB3      30.13F
VACAVILLE      SUNNY     77  46  33 CALM      30.14F
TRAVIS AFB     SUNNY     72  50  44 W8        30.12F
$$
CAZ019>021-202100-
SAN JOAQUIN VALLEY

CITY           SKY/WX    TMP DP  RH WIND       PRES   REMARKS
STOCKTON       SUNNY     75  47  36 NW8       30.12F
MODESTO        SUNNY     72  47  40 N9        30.12F
MERCED         SUNNY     70  46  42 NW5       30.13F
LEMOORE        SUNNY     74  42  31 N10G22    30.12F
FRESNO         SUNNY     70  41  34 E3        30.13F
HANFORD        SUNNY     71  41  33 MISG      30.14F
PORTERVILLE    SUNNY     70  41  34 VRB7      30.15S
BAKERSFIELD    SUNNY     72  39  30 W7        30.14S
$$
CAZ011-012-071-202100-
NORTHERN MOUNTAINS

CITY           SKY/WX    TMP DP  RH WIND       PRES   REMARKS
YREKA          SUNNY     60  35  39 VRB3      30.23F
MOUNT SHASTA   SUNNY     65  35  33 VRB5      30.20F
ALTURAS        SUNNY     57  33  40 VRB3      30.23F
$$
CAZ011-012-071-202100-
SIERRA NEVADA MTNS

CITY           SKY/WX    TMP DP  RH WIND       PRES   REMARKS
BLUE CANYON    SUNNY     58  29  33 W6        30.23F
TRUCKEE        SUNNY     55  27  33 S5        30.25F
TAHOE VLY ARPT SUNNY     53  27  36 NE9       30.24F
MAMMOTH LAKES  FAIR      57   7  13 NW5G16    30.27S
$$



USA.gov is the U.S. government's official web portal to all federal, state and local government web resources and services.